GW0294 Weather Reports


time (UTC)temp
C
wind
direction
speed
KPH
gust
KPH
rain 1hr
cm
rain 24hr
cm
rain mn
cm
humidity
%
barometer
mb
20260504012142 17 22 0.0 0.0 0.00 0.03 0.03 41 1007.6
20260504012040 17 22 0.0 0.0 0.00 0.03 0.03 40 1007.6
20260504011040 17 180 0.0 0.0 0.00 0.03 0.03 39 1007.6
20260504010040 18 132 0.0 0.0 0.00 0.03 0.03 38 1007.4
20260504005138 18 202 0.0 0.0 0.00 0.03 0.03 37 1007.3
20260504004154 18 135 0.0 0.0 0.00 0.03 0.03 36 1007.3
20260504003041 19 22 0.0 0.0 0.00 0.03 0.03 34 1007.2
20260504002138 20 203 0.0 0.0 0.00 0.03 0.03 34 1007.2
20260504001154 20 146 0.0 0.0 0.00 0.03 0.03 32 1007.2
20260504000154 20 170 0.0 0.0 0.00 0.03 0.03 32 1007.2
20260503235240 20 74 0.0 0.0 0.00 0.03 0.03 33 1007.0
20260503234240 21 144 0.0 0.0 0.00 0.03 0.03 30 1006.9
20260503233241 22 181 0.0 0.0 0.00 0.03 0.03 29 1006.7
20260503232239 22 140 0.0 0.0 0.00 0.03 0.03 30 1006.7
20260503231337 22 180 0.0 0.0 0.00 0.03 0.03 28 1006.5
20260503230339 23 210 0.0 0.0 0.00 0.03 0.03 29 1006.6
20260503225356 23 196 0.0 0.0 0.00 0.03 0.03 28 1006.4
20260503222540 23 209 0.0 0.0 0.00 0.03 0.03 29 1006.5
20260503221637 23 238 0.0 0.0 0.00 0.03 0.03 29 1006.5
20260503220639 23 219 0.0 0.0 0.00 0.03 0.03 29 1006.5
20260503215738 23 188 0.0 0.0 0.00 0.03 0.03 29 1006.4
20260503214755 23 140 0.0 0.0 0.00 0.03 0.03 32 1006.5
20260503211940 23 195 0.0 0.0 0.00 0.03 0.03 30 1006.4
20260503211840 23 174 0.0 0.0 0.00 0.03 0.03 30 1006.4
20260503210938 23 203 0.0 0.0 0.00 0.03 0.03 29 1006.6
20260503210037 23 165 0.0 0.0 0.00 0.03 0.03 33 1006.5
20260503205040 23 139 0.0 0.0 0.00 0.03 0.03 32 1006.4
20260503204040 22 211 0.0 0.0 0.00 0.03 0.03 32 1006.6
20260503203038 22 200 0.0 0.0 0.00 0.03 0.03 34 1006.7
20260503202038 22 205 0.0 0.0 0.00 0.03 0.03 35 1006.7
20260503201040 22 212 0.0 0.0 0.00 0.03 0.03 35 1006.8
20260503195139 22 178 0.0 0.0 0.00 0.03 0.03 36 1007.1
20260503194238 22 158 0.0 0.0 0.00 0.03 0.03 36 1007.2
20260503193239 21 201 0.0 0.0 0.00 0.03 0.03 39 1007.3
20260503192239 21 199 0.0 0.0 0.00 0.03 0.03 40 1007.4
20260503191256 21 229 0.0 0.0 0.00 0.03 0.03 40 1007.6
20260503190339 20 196 0.0 0.0 0.00 0.03 0.03 40 1007.8
20260503185339 20 218 0.0 0.0 0.00 0.03 0.03 40 1007.8
20260503184439 20 234 0.0 0.0 0.00 0.03 0.03 40 1008.0
20260503181539 19 245 0.0 0.0 0.00 0.03 0.03 41 1008.4
20260503180539 18 229 0.0 0.0 0.00 0.03 0.03 41 1008.4
20260503175539 18 224 0.0 0.0 0.00 0.03 0.03 41 1008.4
20260503174540 18 217 0.0 0.0 0.00 0.03 0.03 41 1008.6
20260503173539 18 189 0.0 0.0 0.00 0.03 0.03 41 1008.6
20260503172541 18 230 0.0 0.0 0.00 0.03 0.03 42 1008.8
20260503171637 17 212 0.0 0.0 0.00 0.03 0.03 42 1009.0
20260503170640 17 211 0.0 0.0 0.00 0.03 0.03 42 1009.2
20260503150839 15 226 0.0 0.0 0.00 0.03 0.03 44 1009.9
20260503131039 12 157 0.0 0.0 0.03 0.03 0.03 54 1010.8
20260503110355 12 237 0.0 0.0 0.00 0.00 0.00 54 1011.5
20260503081054 11 212 0.0 0.0 0.00 0.00 0.00 43 1013.3
20260503072237 11 213 0.0 0.0 0.00 0.00 0.00 43 1013.7
20260503071237 11 214 0.0 0.0 0.00 0.00 0.00 43 1013.9
20260503071137 11 218 0.0 0.0 0.00 0.00 0.00 43 1013.9
20260503071039 11 204 0.0 0.0 0.00 0.00 0.00 44 1013.9
20260503070137 11 191 0.0 0.0 0.00 0.00 0.00 44 1014.1
20260503060336 11 195 0.0 0.0 0.00 0.00 0.00 45 1014.3
20260503054340 11 157 0.0 0.0 0.00 0.00 0.00 46 1014.6
20260503053236 10 159 0.0 0.0 0.00 0.00 0.00 48 1014.7
20260503052238 10 135 0.0 0.0 0.00 0.00 0.00 48 1014.7
20260503051239 10 157 0.0 0.0 0.00 0.00 0.00 48 1014.8
20260503050239 10 218 0.0 0.0 0.00 0.00 0.00 49 1014.8
20260503045325 10 102 0.0 0.0 0.00 0.00 0.00 50 1015.0
20260503044423 10 168 0.0 0.0 0.00 0.00 0.00 49 1015.0
20260503044327 10 157 0.0 0.0 0.00 0.00 0.00 49 1014.8
20260503043325 10 157 0.0 0.0 0.00 0.00 0.00 50 1015.0
20260503042324 10 206 0.0 0.0 0.00 0.00 0.00 51 1015.1
20260503041423 10 218 0.0 0.0 0.00 0.00 0.00 50 1015.2
20260503034527 11 206 0.0 0.0 0.00 0.00 0.00 49 1015.5
20260503033526 10 118 0.0 0.0 0.00 0.00 0.00 50 1015.5
20260503032524 10 160 0.0 0.0 0.00 0.00 0.00 52 1015.5
20260503031523 10 220 0.0 0.0 0.00 0.00 0.00 52 1015.6
20260503030525 10 45 0.0 0.0 0.00 0.00 0.00 52 1015.9
20260503024525 10 180 0.0 0.0 0.00 0.00 0.00 51 1015.9
20260503023623 10 143 0.0 0.0 0.00 0.00 0.00 52 1015.9
20260503022624 10 45 0.0 0.0 0.00 0.00 0.00 50 1015.9
20260503020723 11 45 0.0 0.0 0.00 0.00 0.00 50 1016.0
20260503020624 11 45 0.0 0.0 0.00 0.00 0.00 50 1015.9
20260503015623 11 45 0.0 0.0 0.00 0.00 0.00 49 1015.9
20260503013623 11 45 0.0 0.0 0.00 0.00 0.00 46 1015.8
20260503012641 12 45 0.0 0.0 0.00 0.00 0.00 47 1015.9